Albany, NY

8:07 AM EST on December 15, 2019 (GMT -0500)
Albany International

Weather History for KALB - August, 2019

Change the Weather History Date:

Tuesday, August 13, 2019

  Actual Average Record
Temperature  
Mean Temperature 74 °F 71 °F  
Max Temperature 81 °F 81 °F 98 °F (1947)
Min Temperature 67 °F 61 °F 43 °F (1957)
Degree Days  
Heating Degree Days 0 0  
Month to date heating degree days 0 0  
Since 1 June heating degree days 27 57  
Since 1 July heating degree days 0 5  
Cooling Degree Days 9 6  
Month to date cooling degree days 98 87  
Year to date cooling degree days 604 453  
Since 1 June cooling degree days 582 423  
Growing Degree Days 24 (Base 50)    
Moisture  
Dew Point 66 °F    
Average Humidity 76    
Maximum Humidity 90    
Minimum Humidity 62    
Precipitation  
Precipitation 0.38 in 0.11 in 1.76 in (1997)
Month to date precipitation 2.04 1.59  
Year to date precipitation 26.90 24.28  
Sea Level Pressure  
Sea Level Pressure 29.78 in    
Wind  
Wind Speed 4 mph (SSE)    
Max Wind Speed 18 mph    
Max Gust Speed 23 mph    
Visibility 10 miles    
Events Rain , Thunderstorm    
T = Trace of Precipitation, MM = Missing Value Source: NWS Daily Summary

Daily Weather History Graph

Daily Weather History Graph

Search for Another Location

Airport or City:

Astronomy

Aug. 13, 2019 Rise Set
Actual Time 5:59 AM EDT 8:00 PM EDT
Civil Twilight 5:28 AM EDT 8:30 PM EDT
Nautical Twilight 4:50 AM EDT 9:08 PM EDT
Astronomical Twilight 4:09 AM EDT 9:49 PM EDT
Moon 7:15 PM EDT (8/13) 3:55 AM EDT (8/13)
Length of Visible Light 15h 02m
Length of Day
14h 01m
Waxing Gibbous, 97% of the Moon is Illuminated
Aug 13
Waxing Gibbous
Aug 15
Full
Aug 23
Last Quarter
Aug 30
New
Sep 5
First Quarter

Hourly Weather History & Observations

Time (EDT) Temp. Heat Index Dew Point Humidity Pressure Visibility Wind Dir Wind Speed Gust Speed Precip Events Conditions
12:51 AM 72.0 °F - 66.9 °F 84% 29.82 in 10.0 mi SSE 4.6 mph - 0.00 in   Overcast
1:51 AM 72.0 °F - 64.9 °F 78% 29.81 in 10.0 mi South 5.8 mph - N/A   Overcast
2:51 AM 72.0 °F - 64.0 °F 76% 29.79 in 10.0 mi South 8.1 mph - N/A   Overcast
3:51 AM 70.0 °F - 64.0 °F 81% 29.80 in 10.0 mi Calm Calm - N/A   Overcast
4:51 AM 68.0 °F - 64.0 °F 87% 29.78 in 10.0 mi Calm Calm - N/A   Overcast
5:51 AM 68.0 °F - 63.0 °F 84% 29.79 in 10.0 mi Calm Calm - N/A   Overcast
6:51 AM 69.1 °F - 64.0 °F 84% 29.79 in 10.0 mi South 3.5 mph - N/A   Overcast
7:51 AM 72.0 °F - 64.0 °F 76% 29.80 in 10.0 mi Calm Calm - N/A   Mostly Cloudy
8:51 AM 73.9 °F - 64.9 °F 73% 29.80 in 10.0 mi SSW 5.8 mph - N/A   Overcast
9:51 AM 75.9 °F - 64.0 °F 67% 29.81 in 10.0 mi South 6.9 mph - N/A   Overcast
10:51 AM 75.9 °F - 64.9 °F 69% 29.81 in 10.0 mi SSE 5.8 mph - N/A   Overcast
11:51 AM 73.9 °F - 66.9 °F 79% 29.81 in 6.0 mi South 4.6 mph - 0.01 in Rain Light Rain
12:51 PM 75.0 °F - 68.0 °F 79% 29.81 in 10.0 mi SSW 5.8 mph - 0.01 in   Overcast
1:51 PM 75.9 °F - 66.0 °F 71% 29.78 in 10.0 mi SSW 8.1 mph - 0.00 in   Mostly Cloudy
2:51 PM 79.0 °F - 66.9 °F 66% 29.75 in 10.0 mi SSW 10.4 mph - N/A   Scattered Clouds
3:51 PM 81.0 °F 83.3 °F 66.9 °F 62% 29.74 in 10.0 mi WSW 4.6 mph - N/A   Mostly Cloudy
4:51 PM 81.0 °F 83.8 °F 68.0 °F 65% 29.73 in 10.0 mi SSE 6.9 mph - N/A   Mostly Cloudy
5:42 PM 81.0 °F 83.8 °F 68.0 °F 65% 29.74 in 10.0 mi ESE 5.8 mph - N/A Thunderstorm Thunderstorm
5:51 PM 80.1 °F 82.7 °F 68.0 °F 67% 29.75 in 10.0 mi Variable 3.5 mph - N/A Thunderstorm Thunderstorm
6:04 PM 70.0 °F - 64.9 °F 84% 29.76 in 1.8 mi NNE 17.3 mph 25.3 mph 0.06 in Rain , Thunderstorm Heavy Thunderstorms and Rain
6:18 PM 70.0 °F - 64.9 °F 84% 29.75 in 4.0 mi East 8.1 mph - 0.36 in Rain , Thunderstorm Light Thunderstorms and Rain
6:51 PM 71.1 °F - 66.0 °F 84% 29.76 in 10.0 mi SE 3.5 mph - 0.36 in Thunderstorm Thunderstorm
6:59 PM 72.0 °F - 66.0 °F 81% 29.76 in 10.0 mi ESE 3.5 mph - N/A   Mostly Cloudy
7:51 PM 70.0 °F - 64.9 °F 84% 29.76 in 10.0 mi East 3.5 mph - N/A   Mostly Cloudy
8:51 PM 70.0 °F - 66.0 °F 87% 29.79 in 9.0 mi North 3.5 mph - N/A   Mostly Cloudy
9:51 PM 70.0 °F - 66.9 °F 90% 29.81 in 10.0 mi Calm Calm - N/A   Overcast
10:51 PM 71.1 °F - 66.9 °F 87% 29.81 in 10.0 mi North 3.5 mph - N/A   Overcast
11:51 PM 70.0 °F - 66.9 °F 90% 29.81 in 10.0 mi Calm Calm - N/A   Overcast